RH
30 30 30 29 30 40 45 42 37 29 29 32 36 42 41 43 43 41 35 25 14 11 12 12 16 19 21 21 28 32 34 36 36 37 38 38 37 36 34 33 35 33 33 33 30 28 26
26 30 33 34 31 32 36 41 35 30 31 35 38 38 41 43 38 26 13 8 6 6 7 6 7 6 7 8 8 8 10 10 9 12 11 14 22 24 28 29 30 35 36 32 31 28 28
31 28 29 29 29 30 33 34 37 39 44 47 44 41 43 33 18 10 7 7 8 9 9 9 9 8 7 8 7 8 8 9 9 11 12 12 13 16 19 23 29 28 29 28 30 26 22
37 29 28 29 29 31 33 34 44 43 44 50 48 44 32 14 8 7 7 9 10 11 12 14 15 14 14 14 14 14 14 14 15 16 16 18 19 20 20 23 21 19 20 26 28 27 24
38 33 27 30 31 31 33 38 36 37 50 49 44 27 14 8 8 9 11 16 20 22 21 20 20 21 19 19 20 21 18 19 20 20 20 22 23 22 22 20 14 14 13 21 27 28 20
37 33 29 31 28 30 31 32 42 50 42 34 18 10 8 8 11 14 19 21 23 25 25 23 21 19 19 20 22 25 24 22 22 22 20 21 21 21 22 13 10 13 11 13 22 30 21
35 34 31 30 30 31 43 49 50 31 16 9 8 9 13 16 20 20 22 24 24 24 24 24 25 25 25 24 24 24 26 24 20 17 13 15 15 19 16 13 10 7 6 5 21 28 8
31 31 32 37 43 50 47 40 23 11 8 10 13 14 17 19 20 20 22 23 27 30 30 29 27 26 26 26 27 27 24 19 15 12 10 6 9 7 6 4 4 4 4 6 6 13 10
34 37 45 50 49 44 38 19 11 10 10 13 14 16 15 15 16 18 22 28 31 29 28 28 26 23 23 28 31 26 20 10 7 6 4 4 4 4 4 4 4 3 4 4 5 8 8
46 54 52 49 42 32 19 12 10 13 14 13 13 13 14 14 16 24 28 30 32 31 29 27 24 19 18 22 23 15 8 6 6 5 4 4 5 6 5 6 6 3 5 5 6 6 5
62 52 46 34 27 18 12 11 13 13 13 11 10 10 16 31 32 29 25 21 22 23 25 23 19 15 12 13 10 8 7 6 6 5 4 6 6 5 5 6 6 5 4 6 7 9 9
56 45 39 28 16 12 11 12 12 11 9 8 16 31 35 31 25 22 21 18 17 23 25 19 14 11 10 9 9 8 7 7 7 6 5 5 5 6 6 6 7 7 8 8 7 8 9
43 31 21 16 13 9 9 8 8 10 19 38 43 36 30 25 18 13 13 16 21 25 22 17 12 10 11 10 8 8 9 9 8 7 7 7 7 8 8 8 8 9 9 9 9 10 10
25 17 14 11 9 9 9 9 28 38 47 40 33 31 25 20 15 14 17 19 21 21 18 13 10 11 12 11 10 12 12 11 10 10 9 10 11 12 10 10 10 10 11 12 18 16 13
31 19 14 12 11 12 11 22 40 48 48 38 38 31 24 19 17 17 19 22 24 21 16 13 12 14 16 15 16 17 16 15 14 14 16 16 12 12 12 13 14 14 14 17 21 21 25
33 21 14 13 13 16 31 47 54 51 49 46 33 26 23 19 18 17 20 27 31 33 32 31 32 29 24 23 24 22 20 19 20 19 17 17 15 13 15 16 17 18 18 18 19 24 26
33 28 15 13 16 37 43 53 60 60 59 49 35 26 21 19 19 20 24 25 27 35 35 34 31 29 28 27 24 22 21 20 20 21 22 22 21 16 18 18 17 16 16 17 25 24 33
43 28 15 17 30 43 48 63 65 65 51 41 34 29 25 23 23 24 25 25 25 30 33 32 32 30 28 26 24 24 24 24 24 22 22 21 18 18 16 15 13 12 13 16 25 21 30
56 34 19 28 40 42 57 63 66 58 49 47 43 40 30 28 28 29 27 25 27 33 39 42 42 37 31 29 29 27 26 25 25 24 18 17 13 13 11 10 8 8 9 12 15 28 30
53 50 36 31 47 51 57 56 63 60 55 50 45 40 35 32 30 29 28 29 32 37 38 40 36 35 34 31 30 28 25 24 21 16 10 9 8 7 7 6 7 6 6 8 14 28 28
55 60 57 46 49 55 62 67 65 65 57 49 42 37 34 33 32 30 30 33 37 40 40 39 38 36 32 29 25 22 17 14 11 8 6 6 5 6 6 6 9 10 9 8 18 31 95
80 81 84 77 68 65 66 66 64 54 48 50 44 40 37 34 32 33 37 40 42 45 45 40 35 30 25 20 15 12 9 7 6 5 4 5 5 6 5 6 8 10 15 19 15 14 40
95 97 96 83 70 73 81 72 69 62 57 51 46 43 40 39 38 38 42 46 48 45 36 29 21 16 13 11 10 8 5 4 4 5 6 9 11 12 10 26 30 19 23 21 27 50 88
100 99 93 80 80 88 84 79 76 70 60 54 50 48 43 39 41 44 46 44 38 28 20 16 13 11 9 8 6 5 5 6 9 16 26 24 27 23 39 79 88 100 100 83 54 40 41
99 98 91 90 91 83 85 80 82 76 66 55 52 45 37 38 39 40 34 27 20 16 13 11 9 8 6 5 5 5 8 14 22 30 51 46 40 41 95 100 94 99 100 100 100 97 76
98 98 98 95 92 92 93 89 80 63 54 48 35 33 34 37 32 28 23 18 14 12 10 8 7 5 5 6 10 16 20 22 28 34 80 76 75 90 95 100 100 100 100 100 100 100 100
98 98 96 96 95 93 91 77 56 49 40 30 26 28 33 32 26 20 15 13 11 9 8 6 5 5 9 15 21 24 29 34 46 62 72 86 83 77 72 83 98 100 99 100 100 100 100
100 100 98 97 97 92 68 56 44 31 28 27 30 32 31 23 18 14 11 11 9 8 6 5 5 9 15 19 20 26 33 52 74 93 100 96 84 79 74 65 65 97 100 100 100 100 100
100 99 97 98 94 75 58 32 27 28 28 31 32 27 22 16 13 12 11 10 8 7 6 6 12 18 18 17 22 28 40 57 97 99 100 99 93 89 88 87 81 46 57 86 97 97 96
Wind_Speed
13 13 11 10 10 12 12 12 12 13 14 15 15 16 18 18 16 13 10 7 7 6 7 7 8 9 11 12 13 14 14 14 15 16 16 16 17 17 17 18 19 20 21 22 24 25 26
14 14 14 12 12 12 13 13 14 15 16 16 17 18 19 17 13 10 8 6 6 7 8 9 9 10 9 10 9 9 10 10 12 12 14 16 17 17 17 20 20 21 22 23 24 26 26
14 15 15 14 13 14 14 13 15 17 17 19 19 18 16 13 10 7 5 8 9 9 11 11 12 13 14 13 15 14 13 13 14 15 15 16 16 17 18 21 21 22 24 24 25 28 28
15 15 15 15 14 14 15 16 17 18 21 20 17 14 13 10 5 5 7 9 10 12 14 14 16 17 16 17 17 18 18 18 18 19 19 18 18 18 20 22 23 24 26 26 28 30 31
15 15 15 15 15 16 18 19 20 21 19 15 13 12 10 8 8 9 11 13 15 17 17 19 21 22 23 23 23 24 24 23 24 24 22 21 21 20 21 25 25 25 28 28 31 32 33
15 15 16 16 17 19 20 21 22 20 16 13 11 10 8 10 11 13 15 17 20 23 24 25 26 27 27 28 29 28 29 28 25 24 24 24 23 23 26 28 28 30 30 32 33 35 36
14 15 16 17 18 19 21 21 19 15 12 10 9 10 11 13 15 18 20 23 26 28 30 31 33 34 34 34 34 32 30 30 26 24 24 24 23 26 27 29 31 32 34 36 35 38 39
14 14 15 17 19 19 17 16 15 13 11 12 12 13 15 18 21 24 26 29 31 33 31 34 36 38 39 37 35 33 31 26 25 25 26 25 24 27 29 31 33 36 37 37 37 41 44
15 16 17 18 16 18 17 15 12 14 14 16 17 19 21 24 26 29 32 34 36 35 34 36 36 36 37 36 33 28 25 25 25 27 27 27 29 31 33 35 36 37 38 40 43 44 45
17 18 18 19 17 17 17 15 16 17 17 19 22 24 27 29 33 36 37 37 37 38 38 36 31 29 27 27 23 24 25 28 30 30 31 32 32 34 37 37 38 41 40 44 45 48 50
20 20 19 20 20 17 15 16 17 19 20 22 25 28 31 35 36 32 32 34 35 35 35 30 28 24 22 23 26 27 30 31 33 34 35 36 39 40 40 41 43 44 45 46 47 50 52
22 21 22 21 18 17 17 18 20 21 23 26 29 32 33 30 31 33 34 34 36 32 32 29 28 28 27 28 30 32 34 35 37 38 40 41 44 44 45 47 47 47 49 51 51 51 54
23 23 22 19 20 20 20 21 20 22 26 30 31 28 28 30 32 33 32 32 31 30 31 31 29 29 31 32 33 34 35 36 40 44 44 44 45 46 47 48 49 51 52 53 53 52 52
22 22 22 21 20 20 19 19 22 28 28 25 25 27 29 31 32 33 30 30 32 31 32 33 34 36 37 37 38 39 41 42 45 46 49 53 55 53 51 50 51 51 51 50 51 52 52
24 24 23 22 20 18 19 21 27 29 25 25 29 30 32 31 31 30 31 31 32 33 34 37 40 43 43 43 45 46 48 50 51 54 57 58 56 55 56 55 53 52 52 49 49 50 52
25 25 24 21 19 20 22 25 24 23 26 28 30 31 33 32 31 32 32 33 34 36 39 43 46 47 47 47 49 51 52 54 57 58 59 60 65 62 61 58 53 50 50 51 52 52 53
25 24 23 22 22 24 24 26 27 27 28 31 33 33 33 32 34 34 34 35 37 38 41 44 47 49 51 53 54 54 56 58 59 61 62 63 66 67 65 61 54 51 52 52 52 52 52
28 25 24 25 26 26 27 29 27 29 29 31 32 33 34 34 36 37 39 40 42 43 45 48 50 52 54 55 57 59 63 65 66 67 67 65 67 71 69 62 58 54 52 53 56 56 54
31 28 29 29 30 29 26 29 28 31 32 34 35 36 37 38 40 41 43 46 47 47 48 51 53 53 55 58 61 63 66 69 72 71 70 71 73 77 77 71 66 61 57 57 58 59 56
32 31 32 33 33 32 32 34 32 32 34 36 38 38 39 40 42 44 47 49 50 52 52 52 55 57 60 62 66 69 72 73 73 73 72 75 78 78 79 76 73 70 64 61 60 58 58
33 35 35 35 36 33 34 34 34 34 36 37 38 39 42 45 46 49 51 52 53 54 55 57 60 62 65 69 72 75 75 77 76 76 78 80 81 76 78 75 72 71 69 65 64 62 56
35 36 38 35 35 34 37 38 36 38 38 39 42 43 47 49 50 53 54 54 54 56 59 61 63 66 69 72 75 77 78 80 80 81 82 82 79 75 74 65 65 68 66 67 66 67 63
39 39 38 36 36 36 37 37 38 40 40 42 44 47 51 54 56 55 54 56 57 58 61 64 68 70 72 74 76 78 81 81 82 78 73 62 56 52 53 44 43 43 50 57 60 63 60
38 37 36 35 36 37 39 39 40 41 43 46 50 53 54 54 54 55 54 55 59 61 64 68 71 73 74 77 78 80 79 73 63 50 45 42 40 40 40 34 29 25 24 30 38 51 60
39 37 35 37 39 39 40 40 41 43 46 50 52 54 53 53 53 51 55 58 62 65 69 71 74 75 77 78 78 71 60 47 41 36 31 32 31 31 25 25 26 22 17 17 23 31 37
38 41 38 40 40 40 40 40 42 45 48 51 52 53 51 49 51 55 59 62 66 68 70 72 75 77 77 71 59 48 42 40 38 33 27 25 23 25 22 18 14 19 21 21 24 22 31
35 39 39 37 37 38 38 40 42 46 50 52 53 50 49 52 57 60 64 66 68 69 71 73 74 72 61 49 42 40 38 37 34 31 31 30 28 28 26 26 22 20 21 24 22 23 29
36 37 35 36 36 35 37 40 45 49 50 50 48 51 54 58 61 64 68 69 68 71 71 74 69 55 40 36 36 37 35 31 28 30 31 30 28 24 24 28 29 27 23 26 28 27 31
33 36 35 33 31 34 39 43 47 47 46 47 51 54 58 62 65 67 69 68 71 73 72 62 47 35 34 33 35 35 34 30 23 24 26 29 24 28 30 28 30 30 34 35 36 34 35
Wind_Direction
239 249 256 259 264 272 281 291 299 304 307 308 306 307 312 313 313 316 323 324 324 321 324 331 322 310 306 306 303 301 299 299 298 298 298 295 294 294 295 294 294 294 293 293 297 298 298
240 251 258 265 275 277 285 292 296 301 303 302 301 302 307 309 314 319 323 329 336 335 333 331 327 324 316 310 310 301 297 295 292 288 286 289 290 292 294 293 294 292 292 292 295 297 298
244 250 257 265 273 279 283 289 296 296 296 297 296 299 302 307 310 317 332 330 328 330 327 324 318 312 310 308 303 296 289 284 282 281 284 286 287 291 291 287 290 288 288 292 292 294 296
246 255 259 265 273 277 283 286 294 297 299 297 293 295 300 302 314 310 310 308 305 304 303 306 307 302 298 295 290 288 282 282 283 281 279 277 279 282 283 288 291 290 292 291 290 292 297
249 257 265 268 275 279 282 287 294 292 296 295 296 298 299 301 305 308 305 304 304 305 307 305 304 300 295 294 291 290 279 280 281 278 278 279 280 281 281 280 282 290 294 291 288 290 293
248 257 263 270 277 283 288 292 293 296 297 297 298 296 291 298 303 305 304 300 301 302 300 297 295 293 293 289 286 283 278 281 279 273 275 277 279 281 279 284 291 287 287 290 290 289 287
257 262 269 274 279 284 289 290 292 291 290 287 288 291 297 302 302 301 301 302 301 299 299 298 297 293 290 288 286 283 278 281 275 275 277 281 282 276 282 283 286 289 291 291 291 284 288
257 261 269 277 281 282 284 289 293 290 283 285 290 295 298 299 300 300 303 302 300 298 295 294 292 292 289 283 281 278 276 272 275 275 278 284 285 285 287 290 292 293 291 291 289 283 287
257 265 268 268 272 282 285 284 276 280 283 287 289 293 297 298 297 299 300 299 298 297 296 295 291 289 286 282 279 274 268 272 277 277 280 287 289 289 290 292 293 291 293 293 291 288 287
252 256 265 271 270 274 279 275 279 286 290 294 299 299 298 298 299 300 301 300 297 297 300 301 295 293 284 276 270 271 277 284 282 282 284 289 293 290 291 296 294 293 295 293 293 291 292
256 258 260 267 270 269 266 275 284 290 292 294 294 294 298 302 302 303 304 306 304 304 303 301 295 290 276 268 270 277 281 284 284 285 288 294 293 294 298 296 294 294 293 295 292 288 288
260 261 263 263 263 269 276 277 280 288 292 293 294 298 299 301 305 306 307 307 306 302 295 292 289 288 279 278 280 283 288 289 288 286 288 290 291 296 297 296 295 294 295 294 293 289 286
265 261 259 260 266 270 276 282 286 288 289 293 293 295 301 307 310 311 312 311 307 298 296 292 288 287 282 279 280 284 289 292 291 287 289 289 294 296 294 294 294 294 295 295 292 289 287
251 258 266 267 270 276 278 275 284 295 294 294 300 304 307 309 311 315 317 314 308 303 293 289 286 287 285 283 283 286 286 286 287 290 289 291 293 293 294 292 293 292 292 292 290 287 286
252 258 262 265 266 267 268 277 289 291 290 296 302 305 306 309 313 318 316 312 307 299 293 289 288 289 290 288 289 290 291 292 291 290 291 292 291 292 294 294 294 295 294 290 287 286 284
259 261 264 262 262 267 274 285 287 288 291 299 303 305 308 311 315 316 315 314 305 299 295 292 292 293 292 292 291 292 292 292 292 293 294 293 293 293 292 291 293 294 290 287 285 283 283
260 260 259 259 261 273 285 285 288 286 291 297 301 305 309 310 310 312 314 313 308 302 298 295 294 293 293 293 292 293 292 294 295 295 294 294 293 292 290 292 290 287 286 284 281 278 279
257 257 254 259 265 275 289 286 285 288 293 296 302 307 307 307 309 312 312 310 308 303 298 297 296 295 295 295 296 296 296 296 296 294 294 295 294 293 292 291 290 284 280 277 276 276 273
259 257 257 261 269 277 284 289 284 287 291 296 300 304 305 307 309 309 310 308 305 301 299 298 296 295 296 297 296 296 296 297 298 300 298 296 294 294 293 291 288 280 274 270 269 270 270
258 260 264 265 271 275 278 286 285 287 291 298 301 302 303 305 308 307 305 303 302 302 301 300 300 299 299 299 299 299 298 300 299 298 296 294 293 290 287 288 284 277 273 270 267 266 267
257 264 265 267 271 275 283 287 282 289 294 299 300 302 303 305 305 304 302 304 304 304 303 303 301 300 299 298 297 298 298 298 298 297 295 293 292 288 287 285 278 276 271 265 258 259 256
255 260 268 267 272 277 285 286 286 292 296 299 301 302 303 304 304 303 303 304 304 304 303 302 302 302 301 301 301 300 299 299 299 298 295 293 292 289 289 285 277 268 262 259 256 253 251
255 262 268 267 270 276 286 287 289 293 297 301 303 302 302 302 302 303 304 305 304 303 302 302 302 302 302 303 303 303 304 303 302 300 299 299 299 298 297 294 290 283 272 259 252 251 247
257 265 265 265 272 278 283 286 288 293 298 301 301 301 302 303 303 305 306 305 305 305 305 305 306 306 306 306 307 307 305 304 306 306 306 306 305 304 306 307 303 304 295 276 257 252 250
255 261 268 266 272 278 282 285 289 293 297 299 298 300 303 303 305 306 306 306 306 308 309 309 309 309 309 310 309 307 307 310 309 308 304 307 312 314 317 310 309 304 292 272 263 259 255
254 258 266 267 272 276 281 287 291 296 298 297 300 303 304 305 306 308 308 309 311 312 313 313 313 313 313 311 311 312 313 311 309 304 305 312 312 319 317 303 305 291 267 248 238 248 239
261 256 262 267 273 279 284 290 295 295 296 300 302 302 304 306 308 310 310 311 313 315 315 315 314 314 313 313 314 315 314 310 306 302 302 305 304 296 296 297 273 285 264 253 255 237 236
249 256 261 267 274 282 289 292 294 296 299 301 304 305 306 308 309 311 313 315 317 316 316 315 313 313 313 314 316 316 314 308 301 297 300 306 314 312 311 296 289 275 273 270 266 268 245
256 258 263 268 279 288 291 294 296 299 302 303 305 307 308 310 313 314 317 319 318 318 315 314 315 315 313 314 314 316 316 312 307 297 297 308 308 310 309 316 311 287 288 276 273 269 261